GW0755 Weather Reports


time (UTC)temp
F
wind
direction
speed
knots
gust
knots
rain 1hr
in
rain 24hr
in
rain mn
in
humidity
%
barometer
mb
20260504081559 77 0 0.0 0.0 0.00 0.00 0.00 92 1013.4
20260504060118 78 0 0.0 0.0 0.00 0.00 0.00 92 1014.4
20260504050112 78 0 0.0 0.0 0.00 0.00 0.00 92 1015.2
20260504044552 78 0 0.0 0.0 0.00 0.00 0.00 92 1015.0
20260504043106 78 0 0.0 0.0 0.00 0.00 0.00 92 1015.1
20260504041554 78 0 0.0 0.0 0.00 0.00 0.00 92 1015.2
20260504040059 78 0 0.0 0.0 0.00 0.00 0.00 92 1015.2
20260504034549 78 0 0.0 0.0 0.00 0.00 0.00 92 1015.0
20260504033058 78 0 0.0 0.0 0.00 0.00 0.00 91 1014.9
20260504031558 78 0 0.0 0.9 0.00 0.00 0.00 91 1014.7
20260504030053 79 0 0.0 0.0 0.00 0.00 0.00 91 1014.7
20260504024557 79 0 0.0 0.0 0.00 0.00 0.00 91 1014.5
20260504023050 80 0 0.0 0.0 0.00 0.00 0.00 91 1014.2
20260504021554 80 0 0.0 0.0 0.00 0.00 0.00 91 1014.0
20260504020055 80 0 0.0 0.0 0.00 0.00 0.00 90 1014.1
20260504014558 80 0 0.0 0.0 0.00 0.00 0.00 90 1014.1
20260504013100 81 0 0.0 2.6 0.00 0.00 0.00 90 1013.7
20260504011549 81 0 0.0 2.6 0.00 0.00 0.00 90 1013.1
20260504010112 81 0 0.0 0.0 0.00 0.00 0.00 90 1013.4
20260504004550 82 0 0.0 0.0 0.00 0.00 0.00 89 1013.3
20260504003052 82 0 0.0 0.0 0.00 0.00 0.00 89 1013.4
20260504001600 82 0 0.0 0.0 0.00 0.00 0.00 89 1013.2
20260504000052 82 0 0.0 3.5 0.00 0.00 0.00 89 1012.9
20260503234549 83 134 0.9 5.2 0.00 0.00 0.00 88 1012.7
20260503233059 83 114 2.6 4.3 0.00 0.00 0.00 88 1012.8
20260503231554 83 0 0.9 7.8 0.00 0.00 0.00 87 1012.7
20260503230049 84 120 0.0 7.0 0.00 0.00 0.00 87 1013.0
20260503224546 84 94 2.6 7.0 0.00 0.00 0.00 86 1012.5
20260503223051 84 77 3.5 7.0 0.00 0.00 0.00 85 1012.5
20260503221600 85 136 1.7 7.0 0.00 0.00 0.00 84 1012.6
20260503214551 85 120 3.5 7.8 0.00 0.00 0.00 85 1012.8
20260503213051 85 103 5.2 8.7 0.00 0.00 0.00 84 1013.0
20260503211557 85 60 0.0 6.1 0.00 0.00 0.00 83 1013.0
20260503210054 85 39 0.0 5.2 0.00 0.00 0.00 83 1013.3
20260503204602 85 118 0.0 6.1 0.00 0.00 0.00 84 1013.2
20260503203058 86 92 1.7 4.3 0.00 0.00 0.00 83 1013.2
20260503201548 86 307 0.0 3.5 0.00 0.00 0.00 82 1013.4
20260503200051 87 311 0.0 2.6 0.00 0.00 0.00 79 1013.5
20260503194608 87 285 0.0 2.6 0.00 0.00 0.00 81 1013.4
20260503193051 86 254 0.9 5.2 0.00 0.00 0.00 82 1013.6
20260503191551 86 204 0.9 4.3 0.00 0.00 0.00 79 1013.6
20260503190058 84 36 0.0 4.3 0.00 0.00 0.00 84 1014.3
20260503184555 86 300 0.0 6.1 0.00 0.00 0.00 82 1014.5
20260503183103 86 197 3.5 12.2 0.00 0.00 0.00 83 1014.2
20260503181550 87 248 4.3 9.6 0.00 0.00 0.00 84 1014.3
20260503180059 86 127 4.3 9.6 0.00 0.00 0.00 84 1014.6
20260503174552 86 226 2.6 8.7 0.00 0.00 0.00 84 1014.6
20260503173137 85 217 3.5 11.3 0.00 0.00 0.00 87 1015.0
20260503171553 84 214 3.5 7.8 0.00 0.00 0.00 88 1015.1